Time,TemperatureF,DewpointF,PressureIn,WindDirection,WindDirectionDegrees,WindSpeedMPH,WindSpeedGustMPH,Humidity,HourlyPrecipIn,Conditions,Clouds,dailyrainin,SolarRadiationWatts/m^2,SoftwareType,DateUTC
2013-07-07 00:00:00,75.5,70.3,30.00,SSE,153,2.0,3.0,84,0.00,,,0.00,0.00,VWS V14.01,2013-07-07 05:00:00,
2013-07-07 00:04:00,75.5,70.3,30.00,SSE,153,2.0,3.0,84,0.00,,,0.00,0.00,VWS V14.01,2013-07-07 05:04:00,
2013-07-07 00:09:00,75.3,70.5,30.00,SSE,160,1.0,4.0,85,0.00,,,0.00,0.00,VWS V14.01,2013-07-07 05:09:00,
2013-07-07 00:10:00,75.3,70.5,30.00,SSE,160,2.0,4.0,85,0.00,,,0.00,0.00,VWS V14.01,2013-07-07 05:10:00,
2013-07-07 00:14:00,75.3,70.5,30.00,SSW,198,2.0,5.0,85,0.00,,,0.00,0.00,VWS V14.01,2013-07-07 05:14:00,
2013-07-07 00:19:00,75.2,70.4,30.00,SSW,195,0.0,5.0,85,0.00,,,0.00,0.00,VWS V14.01,2013-07-07 05:19:00,
2013-07-07 00:20:00,75.2,70.4,30.00,SSW,195,1.0,5.0,85,0.00,,,0.00,0.00,VWS V14.01,2013-07-07 05:20:00,
2013-07-07 00:24:00,75.2,70.4,30.01,ESE,107,1.0,3.0,85,0.00,,,0.00,0.00,VWS V14.01,2013-07-07 05:24:00,
2013-07-07 00:29:00,75.1,70.6,30.00,SSE,159,4.0,4.0,86,0.00,,,0.00,0.00,VWS V14.01,2013-07-07 05:29:00,
2013-07-07 00:30:00,75.1,70.6,30.00,SSE,159,0.0,4.0,86,0.00,,,0.00,0.00,VWS V14.01,2013-07-07 05:30:00,
2013-07-07 00:34:00,75.1,70.6,30.01,SSE,157,4.0,4.0,86,0.00,,,0.00,0.00,VWS V14.01,2013-07-07 05:34:00,
2013-07-07 00:39:00,75.1,70.6,30.01,SSE,156,0.0,4.0,86,0.00,,,0.00,0.00,VWS V14.01,2013-07-07 05:39:00,
2013-07-07 00:40:00,75.1,70.6,30.00,SSE,156,0.0,4.0,86,0.00,,,0.00,0.00,VWS V14.01,2013-07-07 05:40:00,
2013-07-07 00:44:00,75.0,70.5,30.01,SSE,156,0.0,3.0,86,0.00,,,0.00,0.00,VWS V14.01,2013-07-07 05:44:00,
2013-07-07 00:49:00,75.0,70.9,30.01,South,181,0.0,6.0,87,0.00,,,0.00,0.00,VWS V14.01,2013-07-07 05:49:00,
2013-07-07 00:50:00,75.0,70.9,30.01,South,181,1.0,6.0,87,0.00,,,0.00,0.00,VWS V14.01,2013-07-07 05:50:00,
2013-07-07 00:54:00,75.0,70.9,30.01,SE,145,3.0,3.0,87,0.00,,,0.00,0.00,VWS V14.01,2013-07-07 05:54:00,
2013-07-07 00:59:00,74.9,70.8,30.01,SE,141,0.0,5.0,87,0.00,,,0.00,0.00,VWS V14.01,2013-07-07 05:59:00,
2013-07-07 01:00:00,74.9,70.8,30.01,SE,141,0.0,5.0,87,0.00,,,0.00,0.00,VWS V14.01,2013-07-07 06:00:00,
2013-07-07 01:04:00,74.8,70.7,30.00,SE,143,1.0,2.0,87,0.00,,,0.00,0.00,VWS V14.01,2013-07-07 06:04:00,
2013-07-07 01:09:00,74.7,70.6,30.00,SE,136,0.0,3.0,87,0.00,,,0.00,0.00,VWS V14.01,2013-07-07 06:09:00,
2013-07-07 01:10:00,74.6,70.5,30.00,SE,136,0.0,3.0,87,0.00,,,0.00,0.00,VWS V14.01,2013-07-07 06:10:00,
2013-07-07 01:14:00,74.5,70.4,30.00,South,175,1.0,5.0,87,0.00,,,0.00,0.00,VWS V14.01,2013-07-07 06:14:00,
2013-07-07 01:19:00,74.4,70.3,30.00,South,172,0.0,5.0,87,0.00,,,0.00,0.00,VWS V14.01,2013-07-07 06:19:00,
2013-07-07 01:20:00,74.4,70.3,30.00,South,173,3.0,5.0,87,0.00,,,0.00,0.00,VWS V14.01,2013-07-07 06:20:00,
2013-07-07 01:24:00,74.4,70.6,30.00,SSE,157,0.0,4.0,88,0.00,,,0.00,0.00,VWS V14.01,2013-07-07 06:24:00,
2013-07-07 01:29:00,74.3,70.5,30.00,SSE,165,3.0,4.0,88,0.00,,,0.00,0.00,VWS V14.01,2013-07-07 06:29:00,
2013-07-07 01:30:00,74.3,70.5,30.00,SSE,165,1.0,4.0,88,0.00,,,0.00,0.00,VWS V14.01,2013-07-07 06:30:00,
2013-07-07 01:34:00,74.2,70.4,30.00,South,175,2.0,4.0,88,0.00,,,0.00,0.00,VWS V14.01,2013-07-07 06:34:00,
2013-07-07 01:39:00,74.1,70.3,30.00,SSE,152,0.0,5.0,88,0.00,,,0.00,0.00,VWS V14.01,2013-07-07 06:39:00,
2013-07-07 01:40:00,74.1,70.3,30.00,SSE,152,0.0,5.0,88,0.00,,,0.00,0.00,VWS V14.01,2013-07-07 06:40:00,
2013-07-07 01:44:00,74.0,70.2,30.00,SSE,154,0.0,4.0,88,0.00,,,0.00,0.00,VWS V14.01,2013-07-07 06:44:00,
2013-07-07 01:49:00,74.0,70.2,30.00,SSE,154,0.0,4.0,88,0.00,,,0.00,0.00,VWS V14.01,2013-07-07 06:49:00,
2013-07-07 01:50:00,74.0,70.2,30.00,SSE,154,0.0,4.0,88,0.00,,,0.00,0.00,VWS V14.01,2013-07-07 06:50:00,
2013-07-07 01:54:00,73.8,70.0,30.00,SSE,153,0.0,3.0,88,0.00,,,0.00,0.00,VWS V14.01,2013-07-07 06:54:00,
2013-07-07 01:59:00,73.7,70.3,30.00,SSE,154,0.0,3.0,89,0.00,,,0.00,0.00,VWS V14.01,2013-07-07 06:59:00,
2013-07-07 02:00:00,73.7,70.3,30.00,South,180,0.0,4.0,89,0.00,,,0.00,0.00,VWS V14.01,2013-07-07 07:00:00,
2013-07-07 02:04:00,73.6,70.2,30.00,SSE,164,0.0,2.0,89,0.00,,,0.00,0.00,VWS V14.01,2013-07-07 07:04:00,
2013-07-07 02:09:00,73.5,70.1,30.00,SSE,164,0.0,3.0,89,0.00,,,0.00,0.00,VWS V14.01,2013-07-07 07:09:00,
2013-07-07 02:10:00,73.5,70.1,30.00,SSE,165,0.0,3.0,89,0.00,,,0.00,0.00,VWS V14.01,2013-07-07 07:10:00,
2013-07-07 02:14:00,73.4,70.0,30.00,SSE,165,0.0,2.0,89,0.00,,,0.00,0.00,VWS V14.01,2013-07-07 07:14:00,
2013-07-07 02:19:00,73.3,70.2,30.00,SSE,165,2.0,2.0,90,0.00,,,0.00,0.00,VWS V14.01,2013-07-07 07:19:00,
2013-07-07 02:20:00,73.3,70.2,30.00,SSE,157,1.0,3.0,90,0.00,,,0.00,0.00,VWS V14.01,2013-07-07 07:20:00,
2013-07-07 02:24:00,73.2,70.1,30.00,SSE,155,0.0,2.0,90,0.00,,,0.00,0.00,VWS V14.01,2013-07-07 07:24:00,
2013-07-07 02:29:00,73.1,70.0,30.00,SSE,156,1.0,3.0,90,0.00,,,0.00,0.00,VWS V14.01,2013-07-07 07:29:00,
2013-07-07 02:30:00,73.1,70.0,30.00,SSE,156,2.0,3.0,90,0.00,,,0.00,0.00,VWS V14.01,2013-07-07 07:30:00,
2013-07-07 02:34:00,73.1,70.0,30.00,SSE,148,2.0,6.0,90,0.00,,,0.00,0.00,VWS V14.01,2013-07-07 07:34:00,
2013-07-07 02:39:00,73.0,69.9,30.00,SSE,149,0.0,6.0,90,0.00,,,0.00,0.00,VWS V14.01,2013-07-07 07:39:00,
2013-07-07 02:40:00,73.0,69.9,30.00,SSW,202,5.0,6.0,90,0.00,,,0.00,0.00,VWS V14.01,2013-07-07 07:40:00,
2013-07-07 02:44:00,72.9,70.1,30.00,SE,134,2.0,5.0,91,0.00,,,0.00,0.00,VWS V14.01,2013-07-07 07:44:00,
2013-07-07 02:49:00,72.9,70.1,30.00,SSE,150,2.0,5.0,91,0.00,,,0.00,0.00,VWS V14.01,2013-07-07 07:49:00,
2013-07-07 02:50:00,72.8,70.0,30.00,SSE,150,0.0,5.0,91,0.00,,,0.00,0.00,VWS V14.01,2013-07-07 07:50:00,
2013-07-07 02:54:00,72.8,70.0,30.00,SSE,151,0.0,2.0,91,0.00,,,0.00,0.00,VWS V14.01,2013-07-07 07:54:00,
2013-07-07 02:59:00,72.7,69.9,30.00,ESE,113,2.0,4.0,91,0.00,,,0.00,0.00,VWS V14.01,2013-07-07 07:59:00,
2013-07-07 03:00:00,72.7,69.9,30.00,ESE,113,0.0,4.0,91,0.00,,,0.00,0.00,VWS V14.01,2013-07-07 08:00:00,
2013-07-07 03:04:00,72.6,69.8,30.00,SE,134,1.0,4.0,91,0.00,,,0.00,0.00,VWS V14.01,2013-07-07 08:04:00,
2013-07-07 03:09:00,72.5,69.7,30.00,SE,134,0.0,4.0,91,0.00,,,0.00,0.00,VWS V14.01,2013-07-07 08:09:00,
2013-07-07 03:10:00,72.5,69.7,30.00,SE,144,1.0,4.0,91,0.00,,,0.00,0.00,VWS V14.01,2013-07-07 08:10:00,
2013-07-07 03:14:00,72.5,69.7,30.00,SSE,154,0.0,4.0,91,0.00,,,0.00,0.00,VWS V14.01,2013-07-07 08:14:00,
2013-07-07 03:19:00,72.4,69.6,30.00,SE,144,0.0,4.0,91,0.00,,,0.00,0.00,VWS V14.01,2013-07-07 08:19:00,
2013-07-07 03:20:00,72.4,69.6,30.00,SE,144,2.0,4.0,91,0.00,,,0.00,0.00,VWS V14.01,2013-07-07 08:20:00,
2013-07-07 03:24:00,72.3,69.5,30.00,SE,136,1.0,3.0,91,0.00,,,0.00,0.00,VWS V14.01,2013-07-07 08:24:00,
2013-07-07 03:29:00,72.3,69.8,30.00,ESE,119,2.0,4.0,92,0.00,,,0.00,0.00,VWS V14.01,2013-07-07 08:29:00,
2013-07-07 03:30:00,72.3,69.8,30.00,ESE,119,1.0,4.0,92,0.00,,,0.00,0.00,VWS V14.01,2013-07-07 08:30:00,
2013-07-07 03:34:00,72.2,69.8,30.00,SE,126,0.0,5.0,92,0.00,,,0.00,0.00,VWS V14.01,2013-07-07 08:34:00,
2013-07-07 03:39:00,72.1,69.7,30.00,SE,142,2.0,5.0,92,0.00,,,0.00,0.00,VWS V14.01,2013-07-07 08:39:00,
2013-07-07 03:40:00,72.2,69.8,30.00,SE,142,0.0,5.0,92,0.00,,,0.00,0.00,VWS V14.01,2013-07-07 08:40:00,
2013-07-07 03:44:00,72.1,69.7,30.00,SE,141,0.0,2.0,92,0.00,,,0.00,0.00,VWS V14.01,2013-07-07 08:44:00,
2013-07-07 03:49:00,72.1,69.7,30.00,SE,142,1.0,2.0,92,0.00,,,0.00,0.00,VWS V14.01,2013-07-07 08:49:00,
2013-07-07 03:50:00,72.0,69.6,30.00,SE,141,1.0,2.0,92,0.00,,,0.00,0.00,VWS V14.01,2013-07-07 08:50:00,
2013-07-07 03:54:00,72.0,69.6,30.00,SE,142,3.0,3.0,92,0.00,,,0.00,0.00,VWS V14.01,2013-07-07 08:54:00,
2013-07-07 03:59:00,72.0,69.6,30.00,SE,142,1.0,4.0,92,0.00,,,0.00,0.00,VWS V14.01,2013-07-07 08:59:00,
2013-07-07 04:00:00,72.0,69.6,30.00,SE,142,0.0,4.0,92,0.00,,,0.00,0.00,VWS V14.01,2013-07-07 09:00:00,
2013-07-07 04:04:00,72.0,69.6,30.00,SE,142,4.0,4.0,92,0.00,,,0.00,0.00,VWS V14.01,2013-07-07 09:04:00,
2013-07-07 04:09:00,71.9,69.4,30.00,SSE,165,0.0,5.0,92,0.00,,,0.00,0.00,VWS V14.01,2013-07-07 09:09:00,
2013-07-07 04:10:00,71.9,69.4,30.01,SSE,165,0.0,5.0,92,0.00,,,0.00,0.00,VWS V14.01,2013-07-07 09:10:00,
2013-07-07 04:14:00,71.9,69.4,30.00,SSE,163,1.0,4.0,92,0.00,,,0.00,0.00,VWS V14.01,2013-07-07 09:14:00,
2013-07-07 04:19:00,71.9,69.8,30.00,South,171,2.0,4.0,93,0.00,,,0.00,0.00,VWS V14.01,2013-07-07 09:19:00,
2013-07-07 04:20:00,71.8,69.7,30.00,South,171,1.0,4.0,93,0.00,,,0.00,0.00,VWS V14.01,2013-07-07 09:20:00,
2013-07-07 04:25:00,71.8,69.7,30.00,South,171,0.0,2.0,93,0.00,,,0.00,0.00,VWS V14.01,2013-07-07 09:25:00,
2013-07-07 04:30:00,71.7,69.6,30.00,SSE,161,0.0,5.0,93,0.00,,,0.00,0.00,VWS V14.01,2013-07-07 09:30:00,
2013-07-07 04:35:00,71.7,69.6,30.00,SSE,161,0.0,3.0,93,0.00,,,0.00,0.00,VWS V14.01,2013-07-07 09:35:00,
2013-07-07 04:40:00,71.6,69.5,30.00,SSE,164,1.0,6.0,93,0.00,,,0.00,0.00,VWS V14.01,2013-07-07 09:40:00,
2013-07-07 04:45:00,71.5,69.4,30.00,SSE,164,1.0,1.0,93,0.00,,,0.00,0.00,VWS V14.01,2013-07-07 09:45:00,
2013-07-07 04:50:00,71.4,69.3,30.00,SSE,164,0.0,4.0,93,0.00,,,0.00,0.00,VWS V14.01,2013-07-07 09:50:00,
2013-07-07 04:55:00,71.4,69.3,30.00,SSE,164,0.0,2.0,93,0.00,,,0.00,0.00,VWS V14.01,2013-07-07 09:55:00,
2013-07-07 05:00:00,71.3,69.2,30.01,SSE,164,0.0,2.0,93,0.00,,,0.00,0.00,VWS V14.01,2013-07-07 10:00:00,
2013-07-07 05:05:00,71.3,69.2,30.00,SSE,164,0.0,1.0,93,0.00,,,0.00,0.00,VWS V14.01,2013-07-07 10:05:00,
2013-07-07 05:10:00,71.2,69.1,30.01,SSE,164,0.0,1.0,93,0.00,,,0.00,0.00,VWS V14.01,2013-07-07 10:10:00,
2013-07-07 05:15:00,71.2,69.1,30.01,SSE,164,0.0,1.0,93,0.00,,,0.00,0.00,VWS V14.01,2013-07-07 10:15:00,
2013-07-07 05:20:00,71.2,69.1,30.02,SSE,164,0.0,1.0,93,0.00,,,0.00,0.00,VWS V14.01,2013-07-07 10:20:00,
2013-07-07 05:25:00,71.1,69.0,30.02,SSE,164,0.0,0.0,93,0.00,,,0.00,0.00,VWS V14.01,2013-07-07 10:25:00,
2013-07-07 05:30:00,71.0,68.9,30.02,SSE,164,0.0,1.0,93,0.00,,,0.00,0.00,VWS V14.01,2013-07-07 10:30:00,
2013-07-07 05:35:00,71.0,69.2,30.02,SSE,164,0.0,1.0,94,0.00,,,0.00,0.00,VWS V14.01,2013-07-07 10:35:00,
2013-07-07 05:40:00,70.9,69.1,30.02,SSE,164,0.0,1.0,94,0.00,,,0.00,0.00,VWS V14.01,2013-07-07 10:40:00,
2013-07-07 05:45:00,70.9,69.1,30.02,SSE,164,0.0,0.0,94,0.00,,,0.00,0.00,VWS V14.01,2013-07-07 10:45:00,
2013-07-07 05:50:00,70.8,69.0,30.02,SSE,164,0.0,1.0,94,0.00,,,0.00,0.00,VWS V14.01,2013-07-07 10:50:00,
2013-07-07 05:55:00,70.7,68.9,30.02,SSE,164,0.0,1.0,94,0.00,,,0.00,5.00,VWS V14.01,2013-07-07 10:55:00,
2013-07-07 06:00:00,70.7,68.9,30.02,SSE,164,0.0,1.0,94,0.00,,,0.00,9.00,VWS V14.01,2013-07-07 11:00:00,
2013-07-07 06:05:00,70.7,68.9,30.02,SSE,164,0.0,1.0,94,0.00,,,0.00,12.00,VWS V14.01,2013-07-07 11:05:00,
2013-07-07 06:10:00,70.6,68.8,30.02,SSE,163,0.0,1.0,94,0.00,,,0.00,16.00,VWS V14.01,2013-07-07 11:10:00,
2013-07-07 06:15:00,70.6,68.8,30.02,SSE,164,0.0,1.0,94,0.00,,,0.00,21.00,VWS V14.01,2013-07-07 11:15:00,
2013-07-07 06:20:00,70.7,68.9,30.02,SSE,164,0.0,2.0,94,0.00,,,0.00,25.00,VWS V14.01,2013-07-07 11:20:00,
2013-07-07 06:25:00,70.7,68.9,30.02,SSE,164,0.0,2.0,94,0.00,,,0.00,30.00,VWS V14.01,2013-07-07 11:25:00,
2013-07-07 06:30:00,70.7,68.9,30.02,SSE,165,0.0,2.0,94,0.00,,,0.00,30.00,VWS V14.01,2013-07-07 11:30:00,
2013-07-07 06:35:00,70.8,69.0,30.02,SSE,164,0.0,2.0,94,0.00,,,0.00,42.00,VWS V14.01,2013-07-07 11:35:00,
2013-07-07 06:40:00,71.0,69.2,30.02,SSE,164,1.0,2.0,94,0.00,,,0.00,51.00,VWS V14.01,2013-07-07 11:40:00,
2013-07-07 06:45:00,71.2,69.4,30.03,SSE,164,0.0,3.0,94,0.00,,,0.00,42.00,VWS V14.01,2013-07-07 11:45:00,
2013-07-07 06:50:00,71.3,69.5,30.03,SSE,165,0.0,3.0,94,0.00,,,0.00,58.00,VWS V14.01,2013-07-07 11:50:00,
2013-07-07 06:55:00,71.3,69.5,30.03,SSE,160,0.0,4.0,94,0.00,,,0.00,72.00,VWS V14.01,2013-07-07 11:55:00,
2013-07-07 07:00:00,71.5,70.0,30.03,SSE,160,0.0,4.0,95,0.00,,,0.00,60.00,VWS V14.01,2013-07-07 12:00:00,
2013-07-07 07:05:00,71.6,70.1,30.03,ENE,60,1.0,4.0,95,0.00,,,0.00,62.00,VWS V14.01,2013-07-07 12:05:00,
2013-07-07 07:10:00,71.7,69.9,30.04,South,172,1.0,4.0,94,0.00,,,0.00,54.00,VWS V14.01,2013-07-07 12:10:00,
2013-07-07 07:15:00,71.8,70.0,30.04,South,177,0.0,3.0,94,0.00,,,0.00,65.00,VWS V14.01,2013-07-07 12:15:00,
2013-07-07 07:20:00,71.9,70.1,30.04,South,184,1.0,4.0,94,0.00,,,0.00,62.00,VWS V14.01,2013-07-07 12:20:00,
2013-07-07 07:25:00,72.0,70.2,30.04,SE,146,2.0,4.0,94,0.00,,,0.00,105.00,VWS V14.01,2013-07-07 12:25:00,
2013-07-07 07:30:00,72.1,70.3,30.04,SSE,163,1.0,5.0,94,0.00,,,0.00,109.00,VWS V14.01,2013-07-07 12:30:00,
2013-07-07 07:35:00,72.2,70.4,30.04,South,186,2.0,5.0,94,0.00,,,0.00,79.00,VWS V14.01,2013-07-07 12:35:00,
2013-07-07 07:40:00,72.4,70.6,30.05,South,183,4.0,7.0,94,0.00,,,0.00,79.00,VWS V14.01,2013-07-07 12:40:00,
2013-07-07 07:45:00,72.5,70.7,30.05,South,188,3.0,5.0,94,0.00,,,0.00,111.00,VWS V14.01,2013-07-07 12:45:00,
2013-07-07 07:50:00,72.6,70.8,30.05,South,187,1.0,5.0,94,0.00,,,0.00,104.00,VWS V14.01,2013-07-07 12:50:00,
2013-07-07 07:55:00,72.7,70.9,30.05,South,188,0.0,3.0,94,0.00,,,0.00,162.00,VWS V14.01,2013-07-07 12:55:00,
2013-07-07 08:00:00,73.0,71.2,30.05,SSW,200,1.0,5.0,94,0.00,,,0.00,132.00,VWS V14.01,2013-07-07 13:00:00,
2013-07-07 08:05:00,73.1,71.3,30.05,SSW,206,0.0,6.0,94,0.00,,,0.00,188.00,VWS V14.01,2013-07-07 13:05:00,
2013-07-07 08:10:00,73.3,71.5,30.05,South,182,0.0,6.0,94,0.00,,,0.00,192.00,VWS V14.01,2013-07-07 13:10:00,
2013-07-07 08:15:00,73.5,71.7,30.05,SSW,195,0.0,4.0,94,0.00,,,0.00,227.00,VWS V14.01,2013-07-07 13:15:00,
2013-07-07 08:20:00,73.7,71.6,30.05,SSE,167,2.0,4.0,93,0.00,,,0.00,218.00,VWS V14.01,2013-07-07 13:20:00,
2013-07-07 08:25:00,74.0,71.8,30.05,South,190,1.0,4.0,93,0.00,,,0.00,264.00,VWS V14.01,2013-07-07 13:25:00,
2013-07-07 08:30:00,74.4,72.2,30.05,SSW,197,0.0,4.0,93,0.00,,,0.00,236.00,VWS V14.01,2013-07-07 13:30:00,
2013-07-07 08:35:00,74.7,72.2,30.05,South,186,1.0,3.0,92,0.00,,,0.00,272.00,VWS V14.01,2013-07-07 13:35:00,
2013-07-07 08:40:00,75.1,72.6,30.06,South,186,0.0,3.0,92,0.00,,,0.00,308.00,VWS V14.01,2013-07-07 13:40:00,
2013-07-07 08:45:00,75.3,72.5,30.05,SSW,198,1.0,4.0,91,0.00,,,0.00,290.00,VWS V14.01,2013-07-07 13:45:00,
2013-07-07 08:50:00,75.8,73.0,30.05,SSW,196,0.0,4.0,91,0.00,,,0.00,248.00,VWS V14.01,2013-07-07 13:50:00,
2013-07-07 08:55:00,76.1,73.0,30.05,SSW,209,0.0,4.0,90,0.00,,,0.00,309.00,VWS V14.01,2013-07-07 13:55:00,
2013-07-07 09:03:00,76.6,72.8,30.05,SW,217,0.0,0.0,88,0.00,,,0.00,339.00,VWS V14.01,2013-07-07 14:03:00,
2013-07-07 09:08:00,77.1,72.9,30.06,SSW,213,1.0,4.0,87,0.00,,,0.00,330.00,VWS V14.01,2013-07-07 14:08:00,
2013-07-07 09:13:00,77.6,73.4,30.06,SW,218,2.0,3.0,87,0.00,,,0.00,473.00,VWS V14.01,2013-07-07 14:13:00,
2013-07-07 09:18:00,78.3,73.1,30.06,SSW,198,2.0,4.0,84,0.00,,,0.00,355.00,VWS V14.01,2013-07-07 14:18:00,
2013-07-07 09:23:00,77.8,72.9,30.06,SSW,204,1.0,3.0,85,0.00,,,0.00,339.00,VWS V14.01,2013-07-07 14:23:00,
2013-07-07 09:28:00,77.9,73.0,30.06,SSW,208,0.0,4.0,85,0.00,,,0.00,330.00,VWS V14.01,2013-07-07 14:28:00,
2013-07-07 09:33:00,78.7,73.5,30.06,SW,223,0.0,3.0,84,0.00,,,0.00,302.00,VWS V14.01,2013-07-07 14:33:00,
2013-07-07 09:38:00,79.1,73.5,30.06,SW,223,0.0,3.0,83,0.00,,,0.00,302.00,VWS V14.01,2013-07-07 14:38:00,
2013-07-07 09:43:00,79.3,73.3,30.06,SW,225,0.0,3.0,82,0.00,,,0.00,304.00,VWS V14.01,2013-07-07 14:43:00,
2013-07-07 09:48:00,78.7,72.8,30.06,SW,222,0.0,3.0,82,0.00,,,0.00,313.00,VWS V14.01,2013-07-07 14:48:00,
2013-07-07 09:53:00,78.7,73.5,30.06,SW,217,0.0,3.0,84,0.00,,,0.00,336.00,VWS V14.01,2013-07-07 14:53:00,
2013-07-07 09:58:00,78.6,73.0,30.05,SW,219,2.0,3.0,83,0.00,,,0.00,334.00,VWS V14.01,2013-07-07 14:58:00,
2013-07-07 10:03:00,78.4,72.8,30.06,SSW,213,0.0,4.0,83,0.00,,,0.00,306.00,VWS V14.01,2013-07-07 15:03:00,
2013-07-07 10:08:00,79.3,74.1,30.06,SSW,213,0.0,4.0,84,0.00,,,0.00,856.00,VWS V14.01,2013-07-07 15:08:00,
2013-07-07 10:13:00,80.5,73.8,30.06,SSW,213,0.0,4.0,80,0.00,,,0.00,348.00,VWS V14.01,2013-07-07 15:13:00,
2013-07-07 10:18:00,81.1,74.3,30.06,SSW,211,0.0,4.0,80,0.00,,,0.00,810.00,VWS V14.01,2013-07-07 15:18:00,
2013-07-07 10:23:00,81.1,73.6,30.06,SW,217,1.0,5.0,78,0.00,,,0.00,643.00,VWS V14.01,2013-07-07 15:23:00,
2013-07-07 10:28:00,80.5,73.0,30.06,SSE,149,0.0,5.0,78,0.00,,,0.00,459.00,VWS V14.01,2013-07-07 15:28:00,
2013-07-07 10:33:00,80.0,73.3,30.06,SSW,196,2.0,5.0,80,0.00,,,0.00,410.00,VWS V14.01,2013-07-07 15:33:00,
2013-07-07 10:38:00,80.2,73.1,30.06,SW,221,1.0,5.0,79,0.00,,,0.00,497.00,VWS V14.01,2013-07-07 15:38:00,
2013-07-07 10:43:00,80.9,73.8,30.06,SE,132,0.0,3.0,79,0.00,,,0.00,1104.00,VWS V14.01,2013-07-07 15:43:00,
2013-07-07 10:48:00,81.9,74.4,30.05,SW,215,2.0,4.0,78,0.00,,,0.00,387.00,VWS V14.01,2013-07-07 15:48:00,
2013-07-07 10:53:00,81.4,73.5,30.05,SSW,213,1.0,7.0,77,0.00,,,0.00,403.00,VWS V14.01,2013-07-07 15:53:00,
2013-07-07 10:58:00,81.4,73.9,30.05,WSW,246,0.0,7.0,78,0.00,,,0.00,388.00,VWS V14.01,2013-07-07 15:58:00,
2013-07-07 11:03:00,81.5,74.0,30.06,South,186,2.0,3.0,78,0.00,,,0.00,404.00,VWS V14.01,2013-07-07 16:03:00,
2013-07-07 11:08:00,81.5,73.6,30.06,SSW,203,0.0,3.0,77,0.00,,,0.00,371.00,VWS V14.01,2013-07-07 16:08:00,
2013-07-07 11:13:00,81.7,73.8,30.06,SSW,197,0.0,4.0,77,0.00,,,0.00,1132.00,VWS V14.01,2013-07-07 16:13:00,
2013-07-07 11:18:00,82.6,73.5,30.06,SSW,199,0.0,4.0,74,0.00,,,0.00,1109.00,VWS V14.01,2013-07-07 16:18:00,
2013-07-07 11:23:00,82.5,73.8,30.06,SSW,209,1.0,4.0,75,0.00,,,0.00,345.00,VWS V14.01,2013-07-07 16:23:00,
2013-07-07 11:28:00,82.6,74.3,30.06,ESE,121,2.0,6.0,76,0.00,,,0.00,1071.00,VWS V14.01,2013-07-07 16:28:00,
2013-07-07 11:33:00,83.3,73.8,30.07,SSW,202,1.0,3.0,73,0.00,,,0.00,998.00,VWS V14.01,2013-07-07 16:33:00,
2013-07-07 11:38:00,83.8,74.6,30.06,SSW,213,5.0,5.0,74,0.00,,,0.00,589.00,VWS V14.01,2013-07-07 16:38:00,
2013-07-07 11:43:00,84.6,74.2,30.06,SW,219,0.0,4.0,71,0.00,,,0.00,1076.00,VWS V14.01,2013-07-07 16:43:00,
2013-07-07 11:48:00,84.3,73.9,30.06,SSE,165,2.0,4.0,71,0.00,,,0.00,1114.00,VWS V14.01,2013-07-07 16:48:00,
2013-07-07 11:53:00,84.3,74.3,30.06,SE,134,0.0,4.0,72,0.00,,,0.00,464.00,VWS V14.01,2013-07-07 16:53:00,
2013-07-07 11:58:00,84.3,73.5,30.05,South,188,3.0,5.0,70,0.00,,,0.00,404.00,VWS V14.01,2013-07-07 16:58:00,
2013-07-07 12:03:00,84.6,74.2,30.05,ESE,119,1.0,3.0,71,0.00,,,0.00,1083.00,VWS V14.01,2013-07-07 17:03:00,
2013-07-07 12:08:00,85.1,74.2,30.05,SSE,153,1.0,5.0,70,0.00,,,0.00,1171.00,VWS V14.01,2013-07-07 17:08:00,
2013-07-07 12:13:00,85.9,74.6,30.05,WSW,246,1.0,3.0,69,0.00,,,0.00,1097.00,VWS V14.01,2013-07-07 17:13:00,
2013-07-07 12:18:00,86.2,73.5,30.05,East,96,2.0,3.0,66,0.00,,,0.00,1188.00,VWS V14.01,2013-07-07 17:18:00,
2013-07-07 12:23:00,85.8,74.0,30.05,ESE,122,8.0,8.0,68,0.00,,,0.00,315.00,VWS V14.01,2013-07-07 17:23:00,
2013-07-07 12:28:00,85.4,75.3,30.05,SE,133,4.0,8.0,72,0.00,,,0.00,1211.00,VWS V14.01,2013-07-07 17:28:00,
2013-07-07 12:33:00,85.4,74.1,30.05,ESE,103,3.0,5.0,69,0.00,,,0.00,269.00,VWS V14.01,2013-07-07 17:33:00,
2013-07-07 12:38:00,85.0,74.1,30.05,SSE,153,2.0,5.0,70,0.00,,,0.00,292.00,VWS V14.01,2013-07-07 17:38:00,
2013-07-07 12:43:00,85.6,73.4,30.05,SSW,204,0.0,3.0,67,0.00,,,0.00,1273.00,VWS V14.01,2013-07-07 17:43:00,
2013-07-07 12:48:00,86.9,73.3,30.05,NW,305,1.0,4.0,64,0.00,,,0.00,309.00,VWS V14.01,2013-07-07 17:48:00,
2013-07-07 12:53:00,87.0,75.6,30.04,SSE,155,2.0,3.0,69,0.00,,,0.00,1216.00,VWS V14.01,2013-07-07 17:53:00,
2013-07-07 12:58:00,86.9,73.7,30.04,South,169,4.0,5.0,65,0.00,,,0.00,348.00,VWS V14.01,2013-07-07 17:58:00,
2013-07-07 13:03:00,86.0,73.3,30.04,SSE,159,2.0,7.0,66,0.00,,,0.00,315.00,VWS V14.01,2013-07-07 18:03:00,
2013-07-07 13:08:00,85.4,73.6,30.04,ESE,122,2.0,7.0,68,0.00,,,0.00,376.00,VWS V14.01,2013-07-07 18:08:00,
2013-07-07 13:13:00,85.2,73.9,30.03,ESE,120,5.0,8.0,69,0.00,,,0.00,306.00,VWS V14.01,2013-07-07 18:13:00,
2013-07-07 13:18:00,84.9,74.0,30.03,SE,130,0.0,8.0,70,0.00,,,0.00,1230.00,VWS V14.01,2013-07-07 18:18:00,
2013-07-07 13:23:00,85.5,74.2,30.03,SE,137,1.0,8.0,69,0.00,,,0.00,339.00,VWS V14.01,2013-07-07 18:23:00,
2013-07-07 13:28:00,85.1,74.2,30.03,SE,126,4.0,8.0,70,0.00,,,0.00,209.00,VWS V14.01,2013-07-07 18:28:00,
2013-07-07 13:33:00,84.5,74.1,30.04,SE,132,1.0,8.0,71,0.00,,,0.00,174.00,VWS V14.01,2013-07-07 18:33:00,
2013-07-07 13:38:00,84.1,73.7,30.03,ESE,115,8.0,9.0,71,0.00,,,0.00,174.00,VWS V14.01,2013-07-07 18:38:00,
2013-07-07 13:43:00,83.6,73.6,30.03,SSE,153,3.0,7.0,72,0.00,,,0.00,223.00,VWS V14.01,2013-07-07 18:43:00,
2013-07-07 13:48:00,83.6,74.0,30.03,SE,146,2.0,7.0,73,0.00,,,0.00,283.00,VWS V14.01,2013-07-07 18:48:00,
2013-07-07 13:53:00,83.7,74.1,30.03,ESE,115,7.0,7.0,73,0.00,,,0.00,311.00,VWS V14.01,2013-07-07 18:53:00,
2013-07-07 13:58:00,84.0,73.6,30.03,SSE,156,2.0,7.0,71,0.00,,,0.00,274.00,VWS V14.01,2013-07-07 18:58:00,
2013-07-07 14:03:00,84.2,73.8,30.03,SSE,155,1.0,7.0,71,0.00,,,0.00,339.00,VWS V14.01,2013-07-07 19:03:00,
2013-07-07 14:08:00,84.9,74.4,30.03,ESE,123,4.0,8.0,71,0.00,,,0.00,380.00,VWS V14.01,2013-07-07 19:08:00,
2013-07-07 14:13:00,84.9,74.0,30.03,South,183,2.0,9.0,70,0.00,,,0.00,1222.00,VWS V14.01,2013-07-07 19:13:00,
2013-07-07 14:18:00,85.9,75.0,30.03,SE,126,2.0,10.0,70,0.00,,,0.00,306.00,VWS V14.01,2013-07-07 19:18:00,
2013-07-07 14:23:00,85.4,74.5,30.03,SE,124,3.0,7.0,70,0.00,,,0.00,380.00,VWS V14.01,2013-07-07 19:23:00,
2013-07-07 14:28:00,84.5,74.1,30.03,SE,133,2.0,8.0,71,0.00,,,0.00,408.00,VWS V14.01,2013-07-07 19:28:00,
2013-07-07 14:33:00,84.4,74.8,30.03,SSE,155,5.0,9.0,73,0.00,,,0.00,1123.00,VWS V14.01,2013-07-07 19:33:00,
2013-07-07 14:38:00,84.4,74.4,30.03,ESE,119,8.0,9.0,72,0.00,,,0.00,399.00,VWS V14.01,2013-07-07 19:38:00,
2013-07-07 14:43:00,85.1,75.5,30.03,ESE,110,1.0,7.0,73,0.00,,,0.00,995.00,VWS V14.01,2013-07-07 19:43:00,
2013-07-07 14:48:00,85.6,75.1,30.03,SE,141,0.0,9.0,71,0.00,,,0.00,953.00,VWS V14.01,2013-07-07 19:48:00,
2013-07-07 14:53:00,85.7,74.8,30.03,South,170,7.0,8.0,70,0.00,,,0.00,940.00,VWS V14.01,2013-07-07 19:53:00,
2013-07-07 14:58:00,85.6,74.7,30.03,ESE,123,2.0,8.0,70,0.00,,,0.00,967.00,VWS V14.01,2013-07-07 19:58:00,
2013-07-07 15:03:00,85.8,74.5,30.03,SE,141,0.0,7.0,69,0.00,,,0.00,919.00,VWS V14.01,2013-07-07 20:03:00,
2013-07-07 15:08:00,85.9,74.6,30.03,ESE,118,3.0,8.0,69,0.00,,,0.00,912.00,VWS V14.01,2013-07-07 20:08:00,
2013-07-07 15:13:00,86.4,74.2,30.03,South,174,0.0,7.0,67,0.00,,,0.00,889.00,VWS V14.01,2013-07-07 20:13:00,
2013-07-07 15:18:00,86.2,74.8,30.02,SE,132,2.0,7.0,69,0.00,,,0.00,926.00,VWS V14.01,2013-07-07 20:18:00,
2013-07-07 15:24:00,86.9,74.6,30.02,ESE,115,8.0,8.0,67,0.00,,,0.00,893.00,VWS V14.01,2013-07-07 20:24:00,
2013-07-07 15:29:00,86.1,74.3,30.02,SE,136,2.0,9.0,68,0.00,,,0.00,886.00,VWS V14.01,2013-07-07 20:29:00,
2013-07-07 15:33:00,86.0,74.2,30.02,SSE,165,2.0,10.0,68,0.00,,,0.00,860.00,VWS V14.01,2013-07-07 20:33:00,
2013-07-07 15:38:00,86.0,73.8,30.02,SE,132,4.0,10.0,67,0.00,,,0.00,831.00,VWS V14.01,2013-07-07 20:38:00,
2013-07-07 15:43:00,86.2,74.0,30.02,SSE,154,3.0,6.0,67,0.00,,,0.00,800.00,VWS V14.01,2013-07-07 20:43:00,
2013-07-07 15:48:00,86.2,74.0,30.01,South,171,2.0,7.0,67,0.00,,,0.00,791.00,VWS V14.01,2013-07-07 20:48:00,
2013-07-07 15:54:00,86.2,74.4,30.01,SE,132,1.0,8.0,68,0.00,,,0.00,772.00,VWS V14.01,2013-07-07 20:54:00,
2013-07-07 15:58:00,86.7,74.0,30.01,SE,130,3.0,8.0,66,0.00,,,0.00,756.00,VWS V14.01,2013-07-07 20:58:00,
2013-07-07 16:04:00,86.6,74.3,30.01,SE,130,2.0,7.0,67,0.00,,,0.00,744.00,VWS V14.01,2013-07-07 21:04:00,
2013-07-07 16:09:00,86.5,73.8,30.01,SE,128,3.0,8.0,66,0.00,,,0.00,733.00,VWS V14.01,2013-07-07 21:09:00,
2013-07-07 16:14:00,86.7,74.0,30.00,SSE,157,1.0,5.0,66,0.00,,,0.00,721.00,VWS V14.01,2013-07-07 21:14:00,
2013-07-07 16:19:00,86.7,73.1,30.00,SE,125,3.0,8.0,64,0.00,,,0.00,708.00,VWS V14.01,2013-07-07 21:19:00,
2013-07-07 16:24:00,86.7,73.5,30.00,SSE,159,3.0,5.0,65,0.00,,,0.00,693.00,VWS V14.01,2013-07-07 21:24:00,
2013-07-07 16:29:00,86.6,73.4,30.00,SE,145,2.0,6.0,65,0.00,,,0.00,679.00,VWS V14.01,2013-07-07 21:29:00,
2013-07-07 16:34:00,86.6,73.0,30.00,SSE,156,0.0,8.0,64,0.00,,,0.00,654.00,VWS V14.01,2013-07-07 21:34:00,
2013-07-07 16:39:00,86.9,72.8,30.00,East,90,7.0,8.0,63,0.00,,,0.00,642.00,VWS V14.01,2013-07-07 21:39:00,
2013-07-07 16:44:00,86.9,72.3,30.00,South,180,4.0,8.0,62,0.00,,,0.00,624.00,VWS V14.01,2013-07-07 21:44:00,
2013-07-07 16:49:00,86.8,73.2,30.00,SE,144,2.0,8.0,64,0.00,,,0.00,608.00,VWS V14.01,2013-07-07 21:49:00,
2013-07-07 16:54:00,86.8,73.6,30.00,SE,138,2.0,9.0,65,0.00,,,0.00,594.00,VWS V14.01,2013-07-07 21:54:00,
2013-07-07 16:59:00,86.8,73.6,29.99,SSE,160,1.0,9.0,65,0.00,,,0.00,578.00,VWS V14.01,2013-07-07 21:59:00,
2013-07-07 17:04:00,86.9,72.3,30.00,ESE,122,3.0,7.0,62,0.00,,,0.00,563.00,VWS V14.01,2013-07-07 22:04:00,
2013-07-07 17:09:00,86.6,71.6,30.00,South,189,0.0,7.0,61,0.00,,,0.00,548.00,VWS V14.01,2013-07-07 22:09:00,
2013-07-07 17:14:00,86.7,72.6,30.00,ESE,123,0.0,7.0,63,0.00,,,0.00,534.00,VWS V14.01,2013-07-07 22:14:00,
2013-07-07 17:19:00,86.9,72.3,30.00,SE,133,0.0,7.0,62,0.00,,,0.00,515.00,VWS V14.01,2013-07-07 22:19:00,
2013-07-07 17:24:00,86.8,72.2,30.00,SE,138,0.0,5.0,62,0.00,,,0.00,506.00,VWS V14.01,2013-07-07 22:24:00,
2013-07-07 17:29:00,86.9,72.3,30.00,SE,144,3.0,5.0,62,0.00,,,0.00,485.00,VWS V14.01,2013-07-07 22:29:00,
2013-07-07 17:34:00,86.7,72.1,29.99,SE,135,2.0,4.0,62,0.00,,,0.00,471.00,VWS V14.01,2013-07-07 22:34:00,
2013-07-07 17:39:00,86.6,72.5,29.99,SSE,151,0.0,4.0,63,0.00,,,0.00,450.00,VWS V14.01,2013-07-07 22:39:00,
2013-07-07 17:44:00,86.4,72.8,29.99,South,172,1.0,5.0,64,0.00,,,0.00,432.00,VWS V14.01,2013-07-07 22:44:00,
2013-07-07 17:49:00,86.6,73.4,29.99,SE,136,0.0,5.0,65,0.00,,,0.00,418.00,VWS V14.01,2013-07-07 22:49:00,
2013-07-07 17:54:00,86.6,73.4,29.99,SSE,161,0.0,3.0,65,0.00,,,0.00,399.00,VWS V14.01,2013-07-07 22:54:00,
2013-07-07 17:59:00,86.5,73.3,29.99,South,186,3.0,6.0,65,0.00,,,0.00,385.00,VWS V14.01,2013-07-07 22:59:00,
2013-07-07 18:04:00,86.3,73.2,29.99,South,177,0.0,4.0,65,0.00,,,0.00,367.00,VWS V14.01,2013-07-07 23:04:00,
2013-07-07 18:09:00,86.4,73.2,29.99,SE,140,2.0,4.0,65,0.00,,,0.00,348.00,VWS V14.01,2013-07-07 23:09:00,
2013-07-07 18:14:00,86.5,72.9,29.99,SE,145,0.0,3.0,64,0.00,,,0.00,329.00,VWS V14.01,2013-07-07 23:14:00,
2013-07-07 18:19:00,86.7,73.5,29.99,South,187,4.0,6.0,65,0.00,,,0.00,311.00,VWS V14.01,2013-07-07 23:19:00,
2013-07-07 18:24:00,86.5,72.9,29.99,South,186,0.0,4.0,64,0.00,,,0.00,294.00,VWS V14.01,2013-07-07 23:24:00,
2013-07-07 18:29:00,86.5,73.3,29.99,SSW,193,2.0,5.0,65,0.00,,,0.00,283.00,VWS V14.01,2013-07-07 23:29:00,
2013-07-07 18:34:00,86.5,72.9,29.99,SE,138,1.0,4.0,64,0.00,,,0.00,267.00,VWS V14.01,2013-07-07 23:34:00,
2013-07-07 18:39:00,86.3,73.2,29.99,SSW,206,0.0,4.0,65,0.00,,,0.00,250.00,VWS V14.01,2013-07-07 23:39:00,
2013-07-07 18:44:00,86.4,73.2,29.99,SSW,206,0.0,2.0,65,0.00,,,0.00,236.00,VWS V14.01,2013-07-07 23:44:00,
2013-07-07 18:49:00,86.4,73.2,29.99,South,187,1.0,4.0,65,0.00,,,0.00,216.00,VWS V14.01,2013-07-07 23:49:00,
2013-07-07 18:54:00,86.2,73.5,29.99,SSW,212,2.0,4.0,66,0.00,,,0.00,197.00,VWS V14.01,2013-07-07 23:54:00,
2013-07-07 18:59:00,86.3,73.6,29.99,SW,214,0.0,4.0,66,0.00,,,0.00,172.00,VWS V14.01,2013-07-07 23:59:00,
2013-07-07 19:04:00,86.3,72.7,30.00,South,187,3.0,4.0,64,0.00,,,0.00,149.00,VWS V14.01,2013-07-08 00:04:00,
2013-07-07 19:09:00,86.1,72.0,30.00,South,179,1.0,4.0,63,0.00,,,0.00,132.00,VWS V14.01,2013-07-08 00:09:00,
2013-07-07 19:14:00,85.9,71.8,30.00,SE,140,1.0,3.0,63,0.00,,,0.00,113.00,VWS V14.01,2013-07-08 00:14:00,
2013-07-07 19:19:00,85.6,72.0,30.00,SE,140,2.0,4.0,64,0.00,,,0.00,95.00,VWS V14.01,2013-07-08 00:19:00,
2013-07-07 19:24:00,85.4,72.3,30.00,SE,142,1.0,3.0,65,0.00,,,0.00,79.00,VWS V14.01,2013-07-08 00:24:00,
2013-07-07 19:29:00,85.3,72.7,30.00,SE,140,2.0,3.0,66,0.00,,,0.00,67.00,VWS V14.01,2013-07-08 00:29:00,
2013-07-07 19:34:00,85.1,72.9,30.00,SSE,150,2.0,3.0,67,0.00,,,0.00,54.00,VWS V14.01,2013-07-08 00:34:00,
2013-07-07 19:39:00,84.9,72.3,30.00,SSE,152,0.0,3.0,66,0.00,,,0.00,44.00,VWS V14.01,2013-07-08 00:39:00,
2013-07-07 19:44:00,84.9,72.7,30.00,SSE,154,0.0,2.0,67,0.00,,,0.00,35.00,VWS V14.01,2013-07-08 00:44:00,
2013-07-07 19:49:00,84.8,72.6,30.00,SSE,164,0.0,2.0,67,0.00,,,0.00,26.00,VWS V14.01,2013-07-08 00:49:00,
2013-07-07 19:54:00,84.5,72.8,30.00,SSE,163,0.0,2.0,68,0.00,,,0.00,21.00,VWS V14.01,2013-07-08 00:54:00,
2013-07-07 19:59:00,84.3,72.6,30.01,SSE,162,0.0,2.0,68,0.00,,,0.00,16.00,VWS V14.01,2013-07-08 00:59:00,
2013-07-07 20:04:00,84.1,72.8,30.01,SSE,162,0.0,1.0,69,0.00,,,0.00,11.00,VWS V14.01,2013-07-08 01:04:00,
2013-07-07 20:09:00,83.8,73.0,30.01,SSE,163,0.0,1.0,70,0.00,,,0.00,7.00,VWS V14.01,2013-07-08 01:09:00,
2013-07-07 20:14:00,83.5,72.7,30.01,SSE,161,1.0,2.0,70,0.00,,,0.00,0.00,VWS V14.01,2013-07-08 01:14:00,
2013-07-07 20:19:00,83.2,72.4,30.01,SSE,163,1.0,3.0,70,0.00,,,0.00,0.00,VWS V14.01,2013-07-08 01:19:00,
2013-07-07 20:24:00,83.0,72.6,30.01,SSE,163,0.0,1.0,71,0.00,,,0.00,0.00,VWS V14.01,2013-07-08 01:24:00,
2013-07-07 20:29:00,82.9,72.9,30.01,SSE,163,0.0,2.0,72,0.00,,,0.00,0.00,VWS V14.01,2013-07-08 01:29:00,
2013-07-07 20:34:00,82.7,72.8,30.01,SSE,163,1.0,1.0,72,0.00,,,0.00,0.00,VWS V14.01,2013-07-08 01:34:00,
2013-07-07 20:39:00,82.6,72.7,30.01,SSE,163,0.0,1.0,72,0.00,,,0.00,0.00,VWS V14.01,2013-07-08 01:39:00,
2013-07-07 20:44:00,82.5,72.6,30.01,SSE,163,0.0,1.0,72,0.00,,,0.00,0.00,VWS V14.01,2013-07-08 01:44:00,
2013-07-07 20:49:00,82.3,72.8,30.02,SSE,163,0.0,1.0,73,0.00,,,0.00,0.00,VWS V14.01,2013-07-08 01:49:00,
2013-07-07 20:54:00,82.2,72.7,30.02,SSE,163,0.0,1.0,73,0.00,,,0.00,0.00,VWS V14.01,2013-07-08 01:54:00,
2013-07-07 20:59:00,82.0,72.9,30.02,SSE,163,0.0,1.0,74,0.00,,,0.00,0.00,VWS V14.01,2013-07-08 01:59:00,
2013-07-07 21:04:00,81.9,72.8,30.02,SSE,163,0.0,1.0,74,0.00,,,0.00,0.00,VWS V14.01,2013-07-08 02:04:00,
2013-07-07 21:09:00,81.7,72.6,30.02,SSE,163,0.0,1.0,74,0.00,,,0.00,0.00,VWS V14.01,2013-07-08 02:09:00,
2013-07-07 21:14:00,81.5,72.8,30.02,SSE,163,0.0,1.0,75,0.00,,,0.00,0.00,VWS V14.01,2013-07-08 02:14:00,
2013-07-07 21:19:00,81.4,72.7,30.02,SSE,163,0.0,1.0,75,0.00,,,0.00,0.00,VWS V14.01,2013-07-08 02:19:00,
2013-07-07 21:24:00,81.2,72.5,30.02,SSE,163,0.0,1.0,75,0.00,,,0.00,0.00,VWS V14.01,2013-07-08 02:24:00,
2013-07-07 21:29:00,81.0,72.7,30.02,SSE,163,0.0,1.0,76,0.00,,,0.00,0.00,VWS V14.01,2013-07-08 02:29:00,
2013-07-07 21:34:00,80.8,72.5,30.03,SSE,163,0.0,1.0,76,0.00,,,0.00,0.00,VWS V14.01,2013-07-08 02:34:00,
2013-07-07 21:39:00,80.7,72.4,30.03,SSE,163,0.0,1.0,76,0.00,,,0.00,0.00,VWS V14.01,2013-07-08 02:39:00,
2013-07-07 21:44:00,80.6,72.3,30.03,SSE,162,0.0,0.0,76,0.00,,,0.00,0.00,VWS V14.01,2013-07-08 02:44:00,
2013-07-07 21:49:00,80.4,72.2,30.03,SSE,163,0.0,0.0,76,0.00,,,0.00,0.00,VWS V14.01,2013-07-08 02:49:00,
2013-07-07 21:54:00,80.3,72.4,30.03,SSE,163,0.0,0.0,77,0.00,,,0.00,0.00,VWS V14.01,2013-07-08 02:54:00,
2013-07-07 21:59:00,80.1,72.2,30.03,SSE,163,0.0,0.0,77,0.00,,,0.00,0.00,VWS V14.01,2013-07-08 02:59:00,
2013-07-07 22:04:00,80.0,72.2,30.03,SSE,163,0.0,0.0,77,0.00,,,0.00,0.00,VWS V14.01,2013-07-08 03:04:00,
2013-07-07 22:09:00,79.8,71.9,30.03,SSE,163,0.0,0.0,77,0.00,,,0.00,0.00,VWS V14.01,2013-07-08 03:09:00,
2013-07-07 22:14:00,79.7,71.9,30.03,SSE,163,0.0,0.0,77,0.00,,,0.00,0.00,VWS V14.01,2013-07-08 03:14:00,
2013-07-07 22:19:00,79.6,71.8,30.03,SSE,163,0.0,1.0,77,0.00,,,0.00,0.00,VWS V14.01,2013-07-08 03:19:00,
2013-07-07 22:24:00,79.6,72.1,30.03,SSE,163,0.0,0.0,78,0.00,,,0.00,0.00,VWS V14.01,2013-07-08 03:24:00,
2013-07-07 22:29:00,79.5,72.0,30.03,SSE,163,0.0,0.0,78,0.00,,,0.00,0.00,VWS V14.01,2013-07-08 03:29:00,
2013-07-07 22:34:00,79.3,71.8,30.03,SSE,163,0.0,1.0,78,0.00,,,0.00,0.00,VWS V14.01,2013-07-08 03:34:00,
2013-07-07 22:39:00,79.1,72.0,30.03,SSE,163,0.0,1.0,79,0.00,,,0.00,0.00,VWS V14.01,2013-07-08 03:39:00,
2013-07-07 22:44:00,79.0,71.9,30.03,SSE,163,0.0,1.0,79,0.00,,,0.00,0.00,VWS V14.01,2013-07-08 03:44:00,
2013-07-07 22:49:00,78.9,72.2,30.03,SSE,163,0.0,2.0,80,0.00,,,0.00,0.00,VWS V14.01,2013-07-08 03:49:00,
2013-07-07 22:54:00,78.7,72.0,30.03,SSE,163,0.0,1.0,80,0.00,,,0.00,0.00,VWS V14.01,2013-07-08 03:54:00,
2013-07-07 22:59:00,78.7,72.0,30.04,SSE,152,1.0,3.0,80,0.00,,,0.00,0.00,VWS V14.01,2013-07-08 03:59:00,
2013-07-07 23:01:00,78.7,72.4,30.04,SSE,150,2.0,3.0,81,0.00,,,0.00,0.00,VWS V14.01,2013-07-08 04:01:00,
2013-07-07 23:06:00,78.6,72.3,30.04,SE,136,1.0,6.0,81,0.00,,,0.00,0.00,VWS V14.01,2013-07-08 04:06:00,
2013-07-07 23:11:00,78.5,72.6,30.04,SE,142,1.0,4.0,82,0.00,,,0.00,0.00,VWS V14.01,2013-07-08 04:11:00,
2013-07-07 23:16:00,78.2,72.6,30.04,ESE,122,1.0,6.0,83,0.00,,,0.00,0.00,VWS V14.01,2013-07-08 04:16:00,
2013-07-07 23:21:00,78.0,72.8,30.04,South,171,2.0,4.0,84,0.00,,,0.00,0.00,VWS V14.01,2013-07-08 04:21:00,
2013-07-07 23:26:00,77.8,72.6,30.04,SE,126,0.0,4.0,84,0.00,,,0.00,0.00,VWS V14.01,2013-07-08 04:26:00,
2013-07-07 23:31:00,77.6,72.7,30.04,SSE,157,0.0,1.0,85,0.00,,,0.00,0.00,VWS V14.01,2013-07-08 04:31:00,
2013-07-07 23:36:00,77.4,72.5,30.04,SSE,167,0.0,4.0,85,0.00,,,0.00,0.00,VWS V14.01,2013-07-08 04:36:00,
2013-07-07 23:41:00,77.3,72.8,30.04,SSE,167,0.0,1.0,86,0.00,,,0.00,0.00,VWS V14.01,2013-07-08 04:41:00,
2013-07-07 23:46:00,77.1,72.6,30.05,SSE,167,0.0,2.0,86,0.00,,,0.00,0.00,VWS V14.01,2013-07-08 04:46:00,
2013-07-07 23:51:00,76.9,72.4,30.04,SSE,153,0.0,3.0,86,0.00,,,0.00,0.00,VWS V14.01,2013-07-08 04:51:00,
2013-07-07 23:56:00,76.7,72.5,30.05,SSE,147,0.0,4.0,87,0.00,,,0.00,0.00,VWS V14.01,2013-07-08 04:56:00,